Location: Diamond Bar
(34.0286°N, 117.8103°W)
Time: 22:59:38
(UTC+00:00)

Daily predictions for brighter satellites

Satellite Brightness Start Highest point End
(mag) Time Altitude Azimuth Time Altitude Azimuth Time Altitude Azimuth
Cosmos 1484 Rocket 4.2 12:02:37 10° NNE 12:06:22 39° E 12:10:08 10° SSE
Meteor 1-4 Rocket 2.2 12:10:04 41° SSW 12:11:10 80° W 12:14:38 10° N
IRIDIUM 104 4.2 12:06:05 10° N 12:11:19 87° W 12:16:32 10° S
Cosmos 1777 Rocket 4.4 12:07:32 10° NW 12:12:18 37° W 12:17:02 10° SSW
Meteor 1-31 Rocket 4.0 12:13:15 10° NNE 12:16:54 42° E 12:20:32 10° S
NOSS 3-3 (A) 4.2 12:15:21 29° WSW 12:17:44 43° NW 12:23:41 10° NNE
NOSS 3-3 (C) 4.2 12:15:31 29° WSW 12:17:52 43° NW 12:23:45 10° NNE
Cosmos 1727 Rocket 3.9 12:13:57 10° S 12:20:17 75° W 12:26:38 10° N
IRIDIUM 114 4.2 12:15:16 10° N 12:20:27 70° W 12:25:38 10° S
Lacrosse 5 4.0 12:19:12 11° NW 12:20:43 13° NNW 12:22:57 10° N
Meteor 1-27 Rocket 3.9 12:16:11 10° S 12:22:06 84° E 12:28:04 10° N
ADEOS 3.5 12:18:53 10° NNE 12:24:08 87° WNW 12:29:21 10° SSW
USA 32 4.2 12:18:59 10° N 12:24:14 75° E 12:29:28 10° S
ERS-2 2.1 12:20:59 10° S 12:24:34 58° W 12:28:11 10° NNW
Cosmos 1238 Rocket 4.4 12:20:07 10° NNW 12:26:02 37° W 12:31:28 10° SSW
SJ-6F 4.3 12:22:20 10° N 12:26:25 69° WNW 12:30:27 10° SSW
IDEFIX/ARIANE 42P 4.4 12:25:18 10° NW 12:27:17 13° WNW 12:27:17 13° WNW
IRIDIUM 103 4.4 12:24:28 10° NNW 12:29:34 56° W 12:34:38 10° SSW
Landsat 5 4.4 12:27:42 10° SSW 12:31:35 29° W 12:35:31 10° NW
Cosmos 1812 3.8 12:36:03 22° W 12:36:49 24° WNW 12:39:59 10° NNW
Cosmos 1689 Rocket 4.1 12:37:27 10° SE 12:40:06 31° ENE 12:42:47 10° N
SL-4 R/B 2.3 12:36:43 17° SW 12:40:08 75° NW 12:44:56 10° NE
X-37B 3.3 12:40:06 10° NNW 12:41:28 12° N 12:42:51 10° NNE
Cosmos 1937 Rocket 4.5 12:41:07 10° N 12:46:07 50° ENE 12:51:04 10° SE
FALCON 9 DEB 3.3 12:44:56 17° WSW 12:47:19 55° NW 12:50:42 10° NE
deb Chang Zheng 4 4.0 12:44:51 10° N 12:48:53 41° WNW 12:52:53 10° SW
Cosmos 1500 4.4 12:47:57 10° NW 12:50:56 22° W 12:53:53 10° SW
USA 234 3.6 12:45:35 10° SSE 12:51:42 43° SW 12:57:52 10° WNW
Cosmos 1459 Rocket 4.1 12:45:56 10° N 12:52:02 82° E 12:58:05 10° S
Cosmos 1707 Rocket 4.0 12:48:07 10° SSW 12:52:06 37° W 12:56:08 10° NNW
Cosmos 2360 Rocket 2.4 12:46:47 10° SSW 12:52:25 76° ESE 12:58:05 10° NNE
Cosmos 841 Rocket 3.5 12:47:18 10° SSW 12:52:30 85° WNW 12:57:45 10° NNE
USA 281 4.5 12:47:19 10° NE 12:53:32 44° ESE 12:59:43 10° S
ADEOS Rocket 3.4 12:48:01 10° S 12:55:00 53° W 13:01:21 10° NNW
Cosmos 1666 2.9 12:53:24 10° NNW 12:57:03 44° W 13:00:39 10° SSW
Cosmos 1570 Rocket 4.0 12:55:26 10° SSW 13:00:42 73° WNW 13:06:03 10° NNE
CZ-4B R/B 4.3 12:57:48 10° N 13:01:58 48° WNW 13:06:14 10° SSW
DELTA 4 R/B 4.1 12:50:10 11° W 13:02:02 33° SSW 13:06:00 10° SE
CZ-4B R/B 2.5 12:58:36 10° N 13:02:15 83° WNW 13:05:49 10° SSW
ALOS 2.6 12:59:25 10° N 13:03:50 43° WNW 13:08:13 10° SW
Cosmos 1763 Rocket 4.3 12:59:08 10° SW 13:03:51 32° WNW 13:08:36 10° N
Cosmos 2322 Rocket 2.7 13:02:08 10° SW 13:07:25 40° WNW 13:12:45 10° N
Spot 2 4.5 13:04:07 10° NNE 13:08:10 63° ESE 13:12:09 10° S
SKYMED 2 3.9 13:04:08 10° SSE 13:08:27 74° ENE 13:12:46 10° N
PSLV R/B 4.0 13:06:03 10° SSE 13:10:05 83° ENE 13:14:09 10° N
Cosmos 2237 4.2 13:04:48 10° SSW 13:10:28 68° WNW 13:16:10 10° NNE
CZ-4B R/B 2.5 13:10:24 10° SSW 13:12:46 20° W 13:15:12 10° NW
METEOR-M 4.4 13:07:54 10° N 13:13:03 48° WNW 13:18:08 10° SW
FENGYUN 3A 4.2 13:09:04 10° N 13:14:02 39° WNW 13:19:00 10° SW
Okean 1-7 4.4 13:10:12 10° SSE 13:14:16 44° E 13:18:19 10° NNE
SL-16 R/B 3.1 13:09:58 10° WSW 13:14:47 28° WNW 13:19:38 10° N
